Showing default

COSMOS 2271, 23002

Orbit data source: Space-Track

COSMOS 2271, 23002 is a payload satellite owned by VKS (CIS) in LEO that was launched on Sat, 12 Feb 1994 UTC via a TSIKLON-3 launch vehicle from the Plesetsk Missile And Space Complex (PKMTR). Payload-class satellites include a variety of spacecraft equipped with specific instruments for various scientific and technological missions. These include communications satellites like Starlink; space stations such as the ISS; scientific satellites like the Hubble; Earth observation satellites from companies like Planet Labs, Umbra, and HawkEye 360; GPS; miniature CubeSats for education and research; and military/defense satellites.

Loading next visibility...
Identifier
23002, 1994-011D
Orbit
LEO
Country
Flag of CISCIS
Related business
Manufacturer
NPO PM
Mission
Defense Communications
Bus & Motor
STRELA-3, Unknown motor
Mass
225 kg wet, 225 kg dry
Launch date (UTC)
1994-02-12 (32 years ago)
Launch vehicle
TSIKLON-3
Launch site
Plesetsk Missile And Space Complex (PKMTR)
Object type
Payload
Rocket body
Debris
Shape & HBR
Cyl, 0.8 m
Radar Cross Section
1.257 m², Medium (>0.1 m² and < 1m²)

Expand to show TLE details & history
Last TLE update: 9 hours ago

TLE from 9 hours ago
0 COSMOS 2271
1 23002U 94011D   25304.80411441  .00000048  00000-0  20475-3 0  9992
2 23002  82.5630  83.5616 0006652 358.2223   1.8844 12.63515104462641
Epoch: 2025-10-31T19:17Z
TLE epoch observation values (Epoch: 2025-10-31T19:17:55.485Z)
Latitude
Longitude
113.73712°
Altitude
1,406.023 km
Speed
7.16 km/s
True Right ascension
05h 34m 14s
True Declination
0° 00' 00"
Sunlit
Object was in full shadow at epoch
Visualization orbit readout
Latitude
Unknown
Longitude
Unknown
Altitude
Unknown
Speed
Unknown
Apparent Right ascension
Unknown
Apparent Declination
Unknown
Sunlit
N/A
Visualization observer readout
Local Sidereal Time
23:45:50
Azimuth
Unknown
Elevation
Unknown
Doppler factor
Unknown
Orbital elements
Apogee altitude
1,410.967 km
Perigee altitude
1,400.611 km
Semi-major axis
7,783.926 km
Eccentricity
0.00067
Inclination
82.563°
RAAN
83.5616°
Arg. of periapsis
358.2223°
True anomaly
1.88691°
Mean anomaly
1.8844°
Eccentric anomaly
1.88565°
Mean motion
3.16042 °/min
Orbital period
113.91 mins
BSTAR
0.00020475
Loading maneuver chart data...
Computing Atmospheric mass density...
Loading historical data...
Loading historical data...
Loading historical data...
Loading historical data...
Loading historical data...
Loading historical data...
Loading historical data...

Documentation

Showing up to 5 results
|